spie.org alexa rank chart, spie.org alexa rank daily changes

spie.org alexa rank chart, spie.org alexa rank daily changes

spie.org
Actual rank:
40 787

RANK HISTORY

Date Rank Diff
2018/01/21 40 787 +663
2018/01/20 40 124 +288
2018/01/19 39 836 +302
2018/01/18 39 534 -669
2018/01/17 40 203 +1 012
2018/01/16 39 191 +1 610
2018/01/15 37 581 +233
2018/01/14 37 348 +1 082
2018/01/13 36 266 -836
2018/01/12 37 102 -383
2018/01/11 37 485 -537
2018/01/10 38 022 -228
2018/01/09 38 250 -103
2018/01/08 38 353 -475
2018/01/07 38 828 -555
2018/01/06 39 383 -1 473
2018/01/05 40 856 -868
2018/01/04 41 724 -493
2018/01/03 42 217 +1 341
2018/01/02 40 876 +166
2018/01/01 40 710 +200
2017/12/31 40 510 -1 289
2017/12/30 41 799 -447
2017/12/29 42 246 +755
2017/12/28 41 491 -219
2017/12/27 41 710 -87
2017/12/26 41 797 -1 592
2017/12/25 43 389 -709
2017/12/24 44 098 +344
2017/12/23 43 754 -644
2017/12/22 44 398 +777
2017/12/21 43 621 -2 113
2017/12/20 45 734 -1 148
2017/12/19 46 882 +1 101
2017/12/18 45 781 +1 202
2017/12/17 44 579 +695
2017/12/16 43 884 +318
2017/12/15 43 566 +757
2017/12/14 42 809 -1 202
2017/12/13 44 011 +210
2017/12/12 43 801 -383
2017/12/11 44 184 +178
2017/12/10 44 006 -284
2017/12/09 44 290 +528
2017/12/08 43 762 +374
2017/12/07 43 388 +764
2017/12/06 42 624 +108
2017/12/05 42 516 -385
2017/12/04 42 901 +1 288
2017/12/03 41 613 -1 826
2017/12/02 43 439 +269
2017/12/01 43 170 -1 577
2017/11/30 44 747 -8
2017/11/29 44 755 -526
2017/11/28 45 281 +862
2017/11/27 44 419 +752
2017/11/26 43 667 +996
2017/11/25 42 671 +346
2017/11/24 42 325 -484
2017/11/23 42 809 -701
2017/11/22 43 510

WIDGET FOR YOUR SITE

DOMAINS WITH THE NEAREST RANK

Domain Rank
wsmv.com 40 782
ukr-biz.com.ua 40 783
teachmeanatomy.info 40 784
humankinetics.com 40 785
sexybokep.com 40 786
spie.org 40 787
militarymaps.info 40 788
fashiondays.ro 40 789
xenesglosses.eu 40 790
theparisreview.org 40 791
edp24.co.uk 40 792

DOMAINS WITH THE NEAREST RANK BY TLD .org

Domain Rank
nyumc.org 40 696
bajui.org 40 736
ircon.org 40 755
uchim.org 40 764
englishtips.org 40 775
spie.org 40 787
theparisreview.org 40 791
torrentfilmi.org 40 952
koreandrama.org 40 956
oxidemod.org 40 999
adultbay.org 41 022